Wind_Speed
10 11 11 11 12 13 15 16 16 17 17 16 16 16 16 16 16 16 16 16 15 15 15 15 15 15 15 15 15 15 15 15 16 16 16 16 16 17
12 12 12 13 14 15 16 16 17 18 18 17 17 17 17 17 17 17 17 17 17 16 17 16 16 15 16 16 16 16 16 16 16 17 17 17 17 17
13 14 14 14 15 16 16 17 18 18 18 18 18 18 18 18 18 18 19 18 18 17 17 17 17 17 17 17 17 17 17 17 17 17 18 18 19 18
14 15 15 16 16 17 17 18 19 19 19 19 20 20 20 20 20 20 20 19 19 19 19 19 19 19 18 18 18 18 18 18 18 18 19 19 19 19
15 16 16 17 17 18 19 20 20 21 21 21 21 22 22 22 21 21 21 21 21 20 20 21 21 20 20 20 20 20 20 20 20 20 20 20 20 20
17 17 18 18 19 20 21 21 22 23 23 23 23 24 23 23 23 22 22 22 22 21 21 21 21 21 21 22 22 22 22 22 22 22 21 21 21 21
18 19 19 20 21 22 23 24 24 24 25 25 25 24 24 24 24 24 23 23 23 23 22 22 22 21 22 23 23 23 23 23 23 23 23 23 22 22
20 20 21 22 23 23 24 25 26 26 26 27 26 26 26 26 25 25 25 24 25 24 24 23 23 22 22 23 23 24 24 24 24 24 23 23 23 23
22 22 23 24 25 25 26 27 27 28 28 28 27 27 28 28 28 27 26 26 26 26 26 24 24 23 24 24 24 24 25 25 25 24 24 24 24 24
24 25 26 26 27 27 28 29 29 29 30 30 29 29 29 30 29 29 28 28 28 28 28 26 25 25 26 26 25 25 25 25 25 25 25 25 25 25
26 27 28 28 29 29 30 30 31 31 31 32 31 31 31 31 30 30 30 29 29 29 28 28 27 27 27 27 26 26 26 26 26 25 25 25 25 25
28 29 30 30 30 31 32 32 32 32 32 32 32 32 31 31 31 31 30 30 30 29 29 29 28 28 28 28 28 27 26 26 26 26 25 25 25 25
31 31 31 32 32 32 33 33 33 33 33 33 33 33 32 31 31 31 31 31 31 30 30 30 29 29 29 29 29 27 26 26 26 26 26 26 26 27
33 33 34 34 34 34 34 34 34 34 34 34 34 33 33 32 31 30 31 31 31 31 31 31 31 30 30 29 29 28 27 26 26 26 26 26 26 27
35 35 35 36 35 35 34 34 34 34 34 34 34 33 32 31 31 31 32 32 32 31 32 32 33 32 31 30 29 29 28 27 27 26 26 26 26 26
36 36 37 36 35 35 35 34 34 35 34 34 33 32 32 32 32 32 32 33 33 32 32 32 32 33 32 31 30 30 29 28 27 27 27 27 26 26
37 38 38 36 36 36 36 35 35 35 34 34 34 33 33 33 33 34 34 34 34 33 33 33 33 32 31 30 30 30 29 28 27 27 27 27 26 26
38 39 39 37 36 36 36 35 34 34 34 34 34 34 34 34 34 34 34 35 34 33 33 33 33 32 31 30 30 30 29 28 28 28 29 28 28 27
39 39 38 38 37 37 36 36 35 33 33 34 35 34 35 36 36 36 35 35 35 34 34 33 33 32 32 31 31 31 29 29 29 29 29 28 28 28
38 37 37 37 37 37 37 37 35 34 34 35 36 36 36 37 37 37 37 37 36 36 35 34 33 33 32 32 32 31 31 30 30 29 29 29 29 29
37 37 37 37 37 37 37 37 36 36 35 36 37 37 37 38 38 38 38 37 36 36 35 34 34 33 33 33 32 31 31 31 31 30 30 30 30 30
37 37 36 36 36 37 37 37 37 37 36 36 36 36 37 38 39 39 38 38 36 35 35 34 34 35 34 34 33 32 32 31 31 30 31 31 30 30
38 37 37 36 36 36 37 37 36 36 37 37 37 37 37 38 39 38 38 38 37 37 36 35 35 35 35 34 34 33 31 31 30 30 30 31 31 30
Wind_Direction
340 340 338 337 338 338 337 335 336 338 338 335 332 330 330 330 327 326 323 320 317 315 314 312 309 305 302 301 300 299 296 292 291 288 286 283 279 276
332 331 331 332 333 333 332 332 332 334 336 336 335 332 332 330 327 324 321 319 315 313 313 312 309 305 302 299 298 298 295 293 291 288 286 284 281 280
325 325 324 325 328 329 330 332 332 333 333 332 332 330 329 329 327 325 322 319 317 313 311 310 307 304 302 300 299 297 296 294 293 291 288 284 281 279
321 321 321 321 323 326 328 329 329 330 329 328 327 326 325 325 324 323 321 318 315 313 310 307 305 303 301 299 298 297 295 294 293 291 288 286 283 280
317 319 319 319 319 322 324 324 324 324 324 322 322 322 321 320 319 319 318 316 315 312 310 308 305 303 301 299 299 297 295 293 292 290 289 287 284 281
314 315 316 316 316 316 319 321 320 319 319 318 318 318 318 316 315 315 314 313 312 311 311 309 305 302 300 299 298 295 293 292 291 289 288 285 282 280
311 312 314 314 314 314 315 317 317 317 316 314 314 314 315 314 313 310 310 309 309 309 310 308 306 303 301 299 297 295 293 292 291 289 287 285 282 280
310 310 310 311 311 312 312 314 314 314 313 312 310 310 310 310 310 309 307 307 307 307 307 306 304 304 302 301 299 297 294 292 290 288 287 286 284 281
306 307 308 309 309 309 309 309 310 311 311 311 309 308 308 308 309 308 307 307 307 307 306 305 304 302 303 301 298 296 295 293 291 288 287 286 284 281
303 304 305 306 307 306 306 306 307 308 307 306 307 307 307 306 307 307 307 305 305 305 304 303 303 303 303 302 300 297 296 294 293 290 288 285 283 282
302 303 304 305 305 304 304 304 304 305 304 303 304 305 305 305 305 304 304 304 304 304 302 301 301 301 302 301 300 299 298 296 294 290 286 283 282 282
300 301 302 303 303 302 302 302 302 303 303 302 302 303 303 302 303 304 303 302 302 301 300 299 300 300 300 300 299 299 298 296 294 291 287 285 282 282
298 298 299 299 300 301 302 302 302 302 301 301 301 301 301 300 301 301 300 300 300 300 300 300 300 300 300 298 298 298 296 295 294 290 288 287 284 281
298 300 299 299 299 300 300 301 301 301 301 301 300 298 299 299 299 298 298 298 299 300 301 301 300 299 299 299 298 297 295 293 293 290 289 288 284 282
297 298 299 300 297 297 299 299 300 300 300 301 301 299 299 298 297 297 297 297 298 298 298 299 299 298 298 297 297 295 293 292 292 292 290 288 286 284
297 297 298 299 299 298 297 298 298 299 298 299 300 299 297 297 297 297 297 297 297 296 297 298 297 297 297 295 295 294 292 290 290 292 292 290 288 286
296 298 299 299 299 298 297 297 297 297 297 298 298 298 297 297 298 297 297 297 298 298 297 296 296 296 296 295 294 293 292 291 290 289 290 289 287 286
295 296 297 299 298 297 296 297 296 296 296 297 297 297 297 297 297 296 296 295 296 296 295 294 295 295 293 293 294 293 292 290 289 289 288 287 287 285
294 294 295 297 298 297 296 297 295 294 295 296 297 296 296 297 298 297 296 295 295 294 294 294 294 294 293 292 292 291 291 289 288 287 287 286 285 284
295 295 296 296 297 297 296 296 294 293 293 293 294 295 295 296 297 297 297 295 294 294 294 293 292 293 294 294 293 290 289 289 287 286 286 285 284 284
296 298 297 295 295 295 295 295 294 293 292 292 293 294 295 295 296 297 296 295 294 293 293 293 293 293 293 292 292 291 290 288 286 285 284 283 283 285
297 296 296 296 296 296 295 296 295 295 295 296 295 294 295 295 295 295 294 293 292 292 291 292 292 292 292 292 292 290 290 287 285 284 283 283 284 286
298 297 296 297 297 296 295 295 295 295 296 296 296 295 295 295 296 295 294 292 291 290 290 290 291 291 290 291 291 290 288 287 285 285 285 285 286 287
Height
5890 5888 5887 5885 5883 5881 5879 5877 5876 5873 5871 5868 5865 5863 5861 5858 5856 5854 5852 5850 5848 5846 5845 5843 5841 5839 5838 5836 5835 5834 5833 5831 5830 5830 5829 5828 5827 5827
5888 5887 5885 5884 5882 5880 5878 5875 5873 5871 5868 5866 5863 5860 5858 5856 5854 5852 5849 5847 5845 5843 5841 5839 5837 5835 5834 5832 5831 5829 5828 5827 5826 5825 5824 5823 5823 5822
5887 5885 5883 5882 5880 5878 5876 5873 5871 5868 5865 5863 5861 5858 5855 5853 5851 5848 5846 5843 5841 5839 5837 5835 5833 5831 5829 5828 5826 5825 5823 5822 5821 5820 5819 5818 5817 5817
5885 5883 5881 5879 5877 5875 5873 5871 5868 5865 5863 5860 5857 5855 5852 5849 5847 5844 5842 5840 5837 5834 5832 5830 5828 5826 5825 5823 5821 5820 5818 5817 5816 5814 5813 5812 5811 5811
5882 5880 5878 5876 5874 5872 5870 5867 5865 5862 5859 5857 5854 5851 5848 5845 5843 5840 5837 5835 5832 5830 5827 5825 5823 5821 5819 5817 5815 5814 5812 5811 5810 5808 5807 5806 5805 5804
5878 5877 5875 5873 5871 5868 5866 5863 5861 5858 5855 5852 5850 5847 5844 5841 5838 5835 5832 5829 5827 5825 5822 5820 5817 5815 5813 5811 5809 5807 5806 5804 5803 5802 5800 5799 5799 5798
5875 5873 5871 5869 5866 5864 5862 5859 5856 5853 5850 5848 5845 5842 5839 5835 5833 5830 5827 5824 5821 5819 5816 5814 5811 5809 5807 5805 5803 5801 5799 5797 5796 5795 5794 5793 5792 5791
5871 5868 5866 5864 5861 5859 5857 5854 5851 5848 5845 5842 5839 5836 5833 5830 5826 5824 5821 5818 5815 5813 5810 5808 5805 5803 5801 5798 5796 5794 5792 5790 5789 5787 5786 5785 5784 5783
5865 5863 5861 5859 5856 5854 5851 5848 5845 5842 5839 5836 5833 5829 5826 5823 5820 5817 5814 5812 5809 5806 5803 5801 5798 5796 5794 5792 5790 5787 5785 5782 5781 5779 5778 5777 5776 5775
5860 5858 5855 5852 5850 5847 5845 5842 5839 5836 5832 5829 5826 5823 5820 5816 5813 5811 5808 5805 5802 5799 5796 5793 5791 5789 5787 5784 5782 5780 5777 5775 5773 5771 5770 5768 5767 5767
5854 5852 5849 5846 5844 5840 5837 5835 5832 5829 5825 5822 5819 5815 5813 5809 5806 5803 5801 5798 5795 5792 5789 5786 5784 5781 5779 5776 5774 5772 5769 5767 5765 5763 5761 5760 5759 5758
5847 5845 5842 5839 5836 5833 5830 5827 5824 5821 5817 5814 5811 5808 5805 5802 5799 5796 5793 5790 5787 5784 5781 5778 5775 5773 5771 5769 5766 5763 5761 5759 5756 5754 5753 5752 5751 5750
5839 5836 5834 5831 5828 5825 5822 5819 5815 5812 5809 5806 5803 5800 5797 5794 5791 5788 5785 5781 5779 5776 5773 5770 5767 5764 5762 5760 5758 5755 5753 5751 5748 5746 5745 5743 5742 5742
5830 5827 5825 5822 5819 5816 5813 5810 5806 5803 5800 5797 5794 5791 5788 5785 5782 5779 5776 5773 5770 5768 5764 5761 5759 5756 5754 5751 5749 5747 5745 5743 5741 5739 5737 5735 5734 5733
5820 5818 5815 5812 5809 5806 5804 5801 5797 5794 5791 5788 5785 5782 5778 5776 5773 5770 5768 5765 5762 5759 5756 5753 5750 5748 5745 5743 5741 5738 5736 5734 5732 5730 5729 5727 5726 5725
5810 5807 5805 5802 5799 5796 5794 5791 5788 5785 5781 5778 5775 5772 5769 5766 5764 5761 5758 5755 5753 5751 5748 5745 5742 5739 5736 5734 5732 5730 5728 5726 5724 5722 5720 5719 5717 5716
5800 5797 5795 5792 5789 5786 5784 5781 5778 5775 5771 5768 5765 5762 5760 5757 5755 5752 5749 5746 5743 5741 5739 5736 5733 5730 5727 5725 5722 5720 5719 5717 5715 5714 5712 5710 5709 5708
5790 5787 5785 5782 5779 5776 5773 5770 5767 5764 5761 5758 5755 5752 5750 5747 5745 5742 5739 5736 5733 5731 5728 5726 5723 5721 5719 5716 5714 5711 5710 5708 5706 5705 5703 5702 5701 5699
5779 5777 5775 5772 5768 5765 5762 5760 5757 5754 5751 5748 5745 5742 5740 5737 5734 5731 5728 5725 5723 5720 5718 5716 5713 5711 5709 5707 5705 5703 5701 5699 5697 5696 5694 5692 5691 5690
5768 5766 5763 5761 5758 5755 5752 5749 5746 5743 5741 5738 5735 5732 5729 5726 5723 5720 5717 5715 5712 5710 5708 5706 5703 5701 5699 5697 5695 5693 5691 5689 5687 5686 5685 5683 5682 5681
5758 5755 5752 5750 5747 5744 5741 5738 5735 5732 5729 5727 5724 5721 5718 5715 5712 5709 5706 5704 5701 5699 5697 5696 5694 5691 5689 5687 5685 5683 5681 5679 5677 5676 5675 5674 5672 5671
5747 5743 5740 5738 5735 5733 5730 5727 5724 5721 5718 5715 5712 5709 5706 5703 5700 5698 5695 5692 5690 5688 5687 5685 5683 5681 5679 5677 5674 5673 5671 5669 5667 5666 5665 5664 5663 5661
5735 5732 5729 5726 5724 5722 5719 5716 5713 5710 5707 5704 5701 5698 5694 5692 5689 5686 5683 5681 5679 5677 5675 5674 5672 5670 5668 5666 5664 5662 5661 5659 5657 5656 5655 5654 5653 5651